EHI
0 2 8 12 8 2 0 0 0 0 0 0 0 0 0 0 0 1 3 3 3 3 3 3 3 3 1 0 0 0 0 0 0 0 0 0 0 1 2 3 4 4 4 5 5 3 2 1 0
2 6 12 13 6 1 0 0 0 0 0 0 0 0 0 0 1 2 3 3 3 3 3 3 2 2 1 1 0 0 0 0 0 0 1 1 1 1 2 3 4 4 4 5 5 3 1 0 0
9 14 17 10 2 0 0 0 0 0 0 0 0 0 0 1 2 3 3 3 3 3 2 1 1 1 1 1 1 1 0 0 1 1 3 3 3 3 3 3 3 3 3 5 5 2 1 0 0
17 20 16 6 0 0 0 0 0 0 0 0 0 0 0 1 2 3 3 3 2 1 1 0 0 0 1 1 1 1 0 1 2 3 4 4 4 3 3 2 2 1 1 3 3 3 2 1 0
22 18 9 2 0 0 0 0 0 0 0 0 0 0 0 1 3 3 2 1 1 0 0 0 0 0 0 0 1 1 0 1 2 3 3 3 2 1 1 1 0 0 0 1 2 3 3 2 1
20 12 3 0 0 0 0 0 0 0 0 0 0 0 1 2 3 2 1 0 0 0 0 0 1 0 0 0 1 1 0 0 1 1 1 2 1 0 1 1 1 0 1 2 3 3 3 1 0
13 7 2 0 0 0 0 0 0 0 0 0 0 0 1 4 3 1 0 0 0 0 0 0 0 0 0 0 1 1 1 2 1 1 0 0 0 0 1 3 3 1 1 2 2 2 2 1 0
8 4 1 0 0 0 0 0 0 0 0 0 0 0 3 5 3 1 0 0 0 0 0 0 0 0 0 0 0 1 3 5 4 3 1 0 0 0 1 4 4 1 1 1 1 1 1 0 0
6 3 0 0 0 0 0 0 0 0 0 0 0 1 5 6 3 0 0 0 0 0 0 0 0 0 0 0 0 1 3 5 5 3 2 1 1 1 1 3 3 1 0 0 0 0 0 0 0
4 2 0 0 0 0 0 0 0 0 0 0 1 3 7 6 2 0 0 0 0 0 0 0 0 0 0 0 0 0 1 3 3 3 2 1 1 2 2 2 2 1 0 0 0 0 0 0 0
2 1 0 0 0 0 0 0 0 0 0 1 2 5 7 5 1 0 0 0 0 0 0 0 0 0 0 0 0 0 1 2 3 3 2 1 1 2 2 2 1 0 0 0 0 0 0 0 0
1 0 0 0 0 0 0 0 0 0 0 1 3 5 7 4 1 0 0 0 0 0 0 0 0 1 1 1 1 0 1 3 3 3 2 1 0 1 2 1 0 0 0 0 0 1 0 0 0
0 0 0 0 0 0 0 0 0 0 0 1 3 5 6 5 2 0 0 0 0 0 0 0 1 2 2 2 2 1 2 3 3 3 1 0 1 1 2 1 0 0 0 0 0 1 1 0 0
0 0 0 0 0 0 0 0 0 0 0 1 2 4 6 6 4 1 0 0 0 0 0 1 2 3 3 3 3 2 3 3 3 2 1 1 2 2 2 1 0 0 0 0 0 1 1 0 0
0 0 0 0 0 0 0 0 0 1 1 1 2 4 6 6 5 2 0 0 0 1 1 1 2 3 3 3 3 3 3 3 3 1 0 1 2 2 1 0 0 0 0 0 1 1 1 0 0
0 0 0 0 0 0 0 0 1 1 1 2 2 4 6 7 5 2 0 0 1 2 3 3 2 3 3 3 3 3 3 3 2 1 0 0 1 1 1 1 0 0 0 0 1 2 1 0 0
0 0 0 0 0 0 0 0 1 1 1 3 3 5 7 7 4 1 0 0 2 4 7 7 5 4 4 3 3 3 3 3 2 1 0 0 0 0 1 2 1 0 0 0 1 2 1 0 0
0 0 0 0 0 0 0 0 1 1 2 4 5 5 7 7 4 2 1 1 3 7 11 12 9 6 5 4 3 3 3 3 1 0 0 0 0 0 1 2 1 1 0 0 1 2 1 0 0
0 0 0 0 0 0 1 1 2 3 4 4 5 7 8 7 7 7 6 5 7 11 14 15 12 9 6 4 3 3 4 3 1 0 0 0 1 1 1 1 0 0 0 0 1 2 1 0 0
0 0 0 0 0 0 1 2 4 6 6 4 4 7 8 8 10 12 12 10 13 16 16 16 16 12 8 6 4 5 6 5 1 0 0 1 2 2 2 1 1 1 0 0 1 1 1 0 0
0 0 0 0 0 0 1 2 4 6 5 4 4 6 7 9 12 14 13 12 14 17 17 17 18 17 13 9 6 6 8 6 2 1 2 2 3 3 3 2 2 2 1 1 1 1 0 0 0
0 0 0 0 0 0 0 1 4 5 5 4 4 6 8 11 13 13 12 11 13 15 16 17 20 20 18 14 9 7 6 4 3 4 5 5 4 4 3 2 2 2 2 2 1 1 0 0 0
0 0 0 0 0 0 0 0 2 3 4 4 5 7 10 13 15 14 12 12 13 15 16 19 24 25 23 18 13 7 4 4 5 7 8 8 6 4 2 1 0 1 1 1 1 1 1 0 0
0 0 0 0 0 0 0 0 1 2 3 3 5 7 10 13 15 14 13 14 16 17 18 22 28 30 26 22 17 11 8 8 9 10 9 7 6 4 1 0 0 1 1 1 1 2 1 1 1
0 0 0 0 0 0 0 0 1 3 3 3 4 7 10 12 11 12 14 17 19 20 21 24 29 31 28 23 19 15 14 12 11 10 9 6 4 3 3 2 2 2 2 3 3 3 3 3 3
0 0 0 0 0 0 0 0 2 4 4 3 4 7 9 9 9 10 13 17 18 19 20 24 29 30 27 22 19 18 15 12 11 10 8 6 4 4 5 5 5 4 3 3 3 4 4 5 6
0 0 0 0 0 0 0 1 3 4 3 3 4 6 9 10 11 12 14 15 15 16 18 22 28 29 25 21 20 19 15 12 11 10 8 5 5 5 5 5 5 5 4 4 4 5 6 6 6
0 0 0 0 0 0 0 0 2 3 3 4 6 9 11 14 16 15 15 13 12 14 17 21 27 29 24 20 19 19 15 11 11 11 10 7 6 7 5 4 5 6 6 6 5 5 5 6 6
0 0 0 0 0 0 0 0 1 3 5 7 9 12 15 17 18 17 16 15 13 14 17 22 28 29 25 21 19 17 13 10 9 10 11 10 9 8 6 5 6 8 8 8 7 4 3 5 5
0 0 0 0 0 0 0 0 1 4 7 9 12 14 16 17 19 18 18 16 15 16 18 23 28 30 27 24 20 16 12 9 8 9 11 12 12 9 7 6 7 9 9 9 8 5 2 2 4
Wind_Speed
11 8 5 5 6 2 9 8 7 6 6 6 6 4 6 7 6 8 7 7 8 8 9 10 9 9 10 9 10 9 9 8 8 8 8 8 8 8 8 8 9 9 9 10 9 9 9 9 9
7 5 5 6 1 7 10 8 8 8 7 5 5 5 6 8 8 8 7 8 8 9 9 10 11 9 9 9 9 9 9 8 8 8 8 8 8 8 8 8 9 9 9 9 9 9 8 8 8
6 6 5 2 6 9 9 8 8 8 6 3 4 5 6 7 6 6 8 10 9 9 9 11 10 9 9 9 8 8 8 8 8 8 8 8 7 7 8 8 8 8 8 8 8 8 8 8 8
5 6 5 1 11 10 8 7 6 6 6 4 5 8 7 7 5 8 11 10 10 9 9 12 9 8 8 8 8 7 7 7 7 8 8 7 7 7 7 7 7 7 7 8 8 7 7 7 7
5 4 1 7 11 9 8 6 3 4 5 5 5 8 9 7 9 11 11 10 9 9 9 11 9 8 7 7 7 6 6 6 7 7 7 7 7 6 6 7 7 6 7 7 7 7 6 6 6
5 4 3 9 11 8 7 5 4 6 7 7 7 9 8 8 10 11 10 9 9 9 9 10 10 7 6 6 5 5 5 5 6 6 6 7 7 6 6 6 7 7 6 6 6 6 6 6 5
4 3 7 9 8 8 7 4 5 6 7 6 5 8 10 10 10 10 9 9 8 8 8 8 9 8 7 6 5 5 5 5 6 6 6 7 7 7 6 6 6 6 6 6 6 6 6 6 5
4 3 6 8 8 8 6 5 5 5 7 7 4 6 10 13 11 10 9 9 8 7 7 7 6 6 6 7 7 5 6 6 6 6 6 6 7 7 7 7 6 5 6 6 6 6 6 6 5
5 1 8 9 7 6 5 5 6 5 7 5 4 7 14 16 13 11 10 9 8 7 6 5 6 5 4 5 7 6 7 7 6 7 7 6 4 5 6 7 6 5 5 5 5 5 6 6 7
3 5 10 7 6 5 4 4 5 5 7 7 9 12 16 14 13 11 10 9 9 8 7 5 5 5 4 4 4 4 4 5 4 4 4 4 3 3 4 8 6 6 5 6 6 5 7 6 5
2 6 6 5 5 4 4 4 3 3 5 7 11 15 16 14 12 11 9 8 8 8 7 6 5 4 4 3 2 2 2 3 4 5 4 3 3 3 3 3 6 6 6 4 6 5 3 2 2
1 4 4 4 3 2 3 3 4 3 6 7 12 15 15 14 12 10 9 8 8 7 7 6 6 4 3 2 2 2 2 3 3 4 3 3 2 2 2 2 2 2 2 2 2 2 3 2 2
1 3 3 2 1 2 3 4 4 5 7 10 13 14 14 12 11 9 8 7 7 7 7 6 5 5 3 2 1 2 2 3 4 3 3 2 2 2 3 2 1 2 2 3 2 2 3 3 3
3 1 1 2 2 2 2 4 4 7 9 11 12 13 12 11 11 10 8 8 7 6 6 6 6 6 4 3 2 2 2 2 3 3 3 2 2 2 2 2 2 1 2 1 1 3 3 2 2
2 2 3 3 2 2 3 4 4 9 10 11 12 11 11 11 11 10 9 8 8 7 6 6 6 6 5 4 3 2 2 3 2 3 3 2 2 3 2 2 2 2 2 2 2 3 2 2 3
5 4 1 3 1 2 6 2 7 9 10 10 11 11 11 11 11 10 9 8 7 7 7 6 5 6 6 4 3 2 2 3 2 2 3 2 2 3 2 2 2 2 2 2 2 2 2 2 1
5 2 2 2 2 2 5 0 6 8 10 9 10 11 11 11 11 10 10 9 8 8 7 7 6 6 6 5 4 3 3 2 2 2 2 3 3 3 2 2 2 1 1 1 1 2 1 2 1
3 4 2 2 1 3 5 2 4 8 9 9 10 11 12 12 12 11 10 10 9 8 8 8 7 7 6 5 4 3 3 3 2 2 2 3 3 2 1 2 2 1 1 1 2 2 1 1 1
5 5 4 3 1 4 5 4 4 8 9 10 11 11 12 12 12 11 11 10 10 9 9 9 8 8 6 5 4 4 4 3 3 2 3 3 2 2 1 1 2 0 1 1 1 1 2 1 1
6 6 4 1 1 4 4 4 4 7 9 10 11 11 12 12 12 12 12 11 11 11 10 10 9 9 8 5 4 3 3 3 3 2 3 2 3 2 2 1 2 1 2 2 2 1 1 1 1
7 6 5 4 3 5 6 5 6 7 9 10 10 11 12 12 13 13 13 13 12 12 12 10 10 9 8 7 5 4 4 3 4 4 3 3 3 3 1 2 1 1 1 2 2 2 2 1 1
7 3 5 5 7 4 5 5 3 6 8 10 11 11 12 12 13 13 14 14 13 13 12 11 10 10 9 8 7 7 5 5 4 4 3 4 4 3 3 3 2 1 1 2 2 2 1 2 2
5 4 6 7 8 8 6 8 2 5 6 8 9 10 10 11 12 13 14 14 13 12 11 11 10 10 9 9 8 7 6 5 4 4 5 4 4 4 4 3 3 2 1 1 1 1 2 2 2
3 5 7 8 8 9 4 7 4 2 2 3 6 8 8 9 10 11 12 12 12 12 11 11 11 10 10 9 9 8 6 5 5 5 5 5 4 4 5 4 3 3 2 2 2 2 3 2 1
8 9 6 7 7 5 2 7 4 0 1 2 3 5 7 8 9 11 11 12 12 12 12 11 12 11 11 10 9 9 8 7 7 6 5 4 4 4 5 4 4 3 3 3 3 3 2 2 2
9 11 8 7 6 4 5 7 2 0 2 2 3 4 6 8 9 10 11 11 11 12 13 12 12 12 11 11 9 9 9 7 6 6 5 5 3 3 4 5 4 4 4 4 3 3 3 2 3
8 9 9 10 10 9 5 4 4 4 4 4 4 4 5 7 8 9 9 10 11 11 12 12 12 12 11 11 10 9 9 7 6 6 6 5 4 4 5 5 5 5 4 4 4 2 3 2 3
8 7 7 9 8 9 7 7 3 2 2 4 4 4 5 6 7 8 8 8 9 10 10 11 11 11 11 11 10 8 9 8 7 6 6 5 4 4 5 5 5 5 5 4 4 4 3 3 3
9 9 8 8 8 9 8 4 2 1 2 2 3 3 4 5 6 7 7 7 8 9 10 10 10 11 11 10 10 9 9 9 8 7 6 6 5 5 6 6 5 5 5 5 4 4 4 4 3
9 10 11 9 9 9 10 5 1 1 2 2 1 1 1 3 4 6 7 7 7 9 9 9 10 10 10 10 10 10 9 8 8 8 7 6 6 6 6 6 6 6 5 5 5 5 4 5 5
Wind_Direction
177 183 210 236 233 121 64 60 61 66 68 61 55 45 49 40 29 68 96 114 117 122 122 127 117 114 112 111 109 111 113 116 119 122 120 118 117 116 119 127 129 126 123 124 122 122 122 120 117
173 189 227 240 275 74 67 58 59 57 82 97 78 70 72 67 59 93 115 116 125 122 123 118 116 117 114 110 108 109 112 114 116 118 117 120 120 116 116 118 126 128 127 125 125 123 123 122 119
184 225 260 261 52 57 62 61 74 85 90 93 90 63 53 69 86 101 115 128 128 122 120 114 120 117 114 111 108 108 109 111 112 114 115 117 120 118 118 117 121 126 129 127 125 127 126 125 122
216 227 234 69 67 58 60 69 84 99 94 85 100 91 78 63 83 109 127 134 130 124 121 114 118 116 113 111 110 109 108 110 113 114 110 110 113 116 119 120 120 123 128 127 128 131 129 126 124
240 258 179 81 70 65 63 64 70 71 87 99 99 97 89 81 101 117 130 133 127 124 120 117 116 115 112 110 111 114 115 116 117 116 113 110 111 115 122 123 120 120 123 128 131 131 130 130 128
248 248 63 71 73 73 70 65 74 78 95 107 111 105 93 113 119 124 128 128 124 122 121 120 123 121 117 122 125 125 126 125 124 122 123 118 115 120 126 121 118 116 121 126 127 132 134 135 135
299 352 59 67 72 73 62 56 61 84 99 103 114 109 118 131 126 130 126 123 122 122 123 125 132 135 135 130 126 125 127 121 124 127 122 118 116 119 126 124 122 120 123 126 132 133 137 137 135
295 291 68 65 58 67 75 74 66 75 89 107 131 124 133 137 137 133 129 128 125 125 123 120 126 126 138 135 127 121 124 125 127 124 119 123 134 138 141 147 133 132 129 130 133 135 134 134 136
266 314 57 49 47 69 93 91 85 88 108 111 87 99 123 137 143 142 140 138 135 132 131 126 126 129 129 119 122 138 142 140 150 140 138 157 146 136 150 118 127 134 131 130 135 141 143 151 154
276 39 49 36 40 70 94 84 107 130 123 121 115 113 127 143 152 152 149 148 146 143 139 135 135 132 126 115 124 139 138 133 134 119 137 136 122 126 124 130 146 144 146 147 142 153 173 193 159
340 31 40 46 47 66 92 95 119 136 116 130 139 140 145 152 158 157 154 153 147 143 141 143 137 134 127 121 121 111 112 116 126 121 125 122 136 140 144 142 150 156 167 153 144 170 170 141 103
350 36 24 46 57 77 84 102 115 75 72 112 134 145 151 159 161 160 156 152 151 148 149 146 143 138 128 114 110 126 120 118 112 117 135 134 136 132 113 123 119 142 131 116 119 123 120 112 124
7 43 39 60 90 89 115 114 103 96 102 124 136 149 157 160 159 159 156 154 156 155 155 151 146 139 142 139 150 126 124 120 118 120 119 129 137 130 123 111 116 128 124 144 135 116 120 131 136
12 18 92 107 117 141 146 122 124 116 132 138 148 157 162 163 163 162 167 166 164 165 161 153 161 155 158 156 148 124 123 120 115 117 110 125 115 108 120 128 131 130 137 110 125 125 134 136 123
239 216 159 125 125 143 203 154 126 133 149 152 159 163 165 170 170 173 174 175 171 171 168 165 168 160 163 162 159 149 151 136 123 119 119 128 123 119 136 130 149 117 131 144 149 133 144 154 148
230 235 167 118 161 185 254 121 125 151 164 165 167 169 174 178 181 179 179 182 179 177 172 178 177 163 162 167 164 153 145 133 137 138 132 131 117 139 155 131 113 115 155 154 140 154 142 139 150
221 273 359 106 176 219 257 326 137 169 179 177 178 179 182 183 190 186 185 185 183 182 179 179 182 171 168 162 166 164 149 150 152 152 144 135 141 138 151 108 94 172 152 129 144 112 147 153 156
323 323 332 352 150 242 255 279 159 186 196 190 187 188 190 191 192 189 190 186 183 181 182 182 183 177 175 170 169 171 163 170 167 158 137 150 147 138 145 137 131 188 131 109 84 115 119 191 192
301 302 314 351 38 257 255 263 209 196 204 202 199 198 199 198 190 188 191 188 184 183 183 186 188 177 182 183 186 179 176 177 167 164 144 167 159 148 177 128 134 188 110 101 132 166 163 199 184
264 277 289 313 4 270 272 263 223 207 211 211 209 205 206 199 192 191 194 194 190 186 187 187 190 186 190 185 187 185 173 175 165 164 151 183 177 182 171 152 171 128 125 136 142 189 234 197 217
254 279 305 307 265 231 265 237 200 196 207 212 217 217 212 205 200 195 199 199 194 190 190 190 190 187 192 184 182 174 166 177 171 176 174 185 192 194 174 154 147 149 190 142 170 191 210 223 221
255 283 289 280 263 249 257 275 186 194 204 212 216 214 214 206 205 201 199 200 198 193 190 189 188 188 186 185 190 186 187 186 181 188 179 181 190 189 172 162 151 190 176 146 202 157 230 233 230
280 284 272 269 265 263 239 266 214 175 210 211 210 211 212 205 204 203 201 199 198 190 186 185 184 185 184 189 190 196 199 192 183 183 176 190 179 189 182 168 172 188 205 163 211 168 238 233 254
236 236 236 240 249 251 248 266 254 183 225 216 203 206 209 203 200 200 197 193 192 188 185 183 179 182 182 186 189 196 197 197 190 188 180 190 181 187 183 183 183 190 182 176 195 198 200 242 262
228 245 243 231 228 242 189 257 264 325 244 252 228 205 202 197 194 191 191 190 190 190 187 182 179 183 184 186 189 192 194 195 198 199 192 202 190 187 177 186 186 187 182 189 195 200 219 216 221
239 255 262 270 272 259 205 248 264 214 242 242 228 200 191 192 191 189 190 190 191 192 192 187 183 186 186 187 190 194 194 198 198 199 203 198 204 188 170 186 186 183 188 195 195 212 205 206 217
236 242 267 275 271 272 254 246 238 208 220 211 202 187 184 188 189 188 187 189 189 191 193 192 188 188 189 189 188 195 195 200 199 193 203 205 198 186 181 189 189 189 192 202 206 207 216 217 226
256 254 242 252 264 266 249 245 251 219 231 202 201 190 181 184 186 186 185 188 188 188 188 190 192 192 191 190 192 191 194 195 198 202 203 206 201 190 187 189 192 190 194 201 214 209 202 226 233
207 223 244 255 260 270 272 263 53 288 291 254 219 191 186 188 185 181 182 185 187 187 185 186 189 192 194 196 194 196 195 194 195 199 201 202 204 193 194 193 188 191 198 202 211 226 212 227 233
243 240 238 246 246 255 274 274 84 323 318 315 298 228 191 191 188 178 176 180 186 185 183 183 187 192 195 194 196 197 198 197 197 197 199 198 199 200 195 196 194 200 201 206 213 224 221 225 231